Weather History for Metropolis, IL

Change the Weather History Date:

Tuesday, January 24, 2012

  Actual Average (KPAH) Record (KPAH)
Temperature  
Mean Temperature 40 °F 35 °F  
Max Temperature 51 °F 44 °F 73 °F (1950)
Min Temperature 28 °F 26 °F -11 °F (1963)
Degree Days  
Heating Degree Days 26 30  
Month to date heating degree days 737  
Since 1 July heating degree days 2368  
Cooling Degree Days 0 0  
Month to date cooling degree days 0  
Year to date cooling degree days 0  
Moisture  
Dew Point 31 °F    
Average Humidity 72    
Maximum Humidity 100    
Minimum Humidity 45    
Precipitation  
Precipitation 0.00 in 0.12 in 1.14 in (1941)
Month to date precipitation 2.83  
Year to date precipitation 2.83  
Snow  
Snow 0.00 in 0.10 in 1.30 in (1956)
Month to date snowfall 2.2  
Since 1 July snowfall 4.5  
Snow Depth -    
Sea Level Pressure  
Sea Level Pressure 30.23 in    
Wind  
Wind Speed 2 mph (North)    
Max Wind Speed 7 mph    
Max Gust Speed -    
Visibility 10 miles    
Events      
T = Trace of Precipitation, MM = Missing Value Source: NWS Daily Summary

Daily Weather History Graph

Daily Weather History Graph

Search for Another Location

Airport:

Trip Planner

Search our weather history database for the weather conditions in past years. The results will help you decide how hot, cold, wet, or windy it might be!

Date:

Astronomy

Jan. 24, 2012 Rise Set
Actual Time 7:03 AM CST 5:10 PM CST
Civil Twilight 6:35 AM CST 5:38 PM CST
Nautical Twilight 6:04 AM CST 6:10 PM CST
Astronomical Twilight 5:33 AM CST 6:40 PM CST
Moon 7:36 AM CST (1/24) 6:58 PM CST (1/24)
Length of Visible Light 11h 02m
Length of Day
10h 06m
New Moon, 2% of the Moon is Illuminated
Jan 24
New Moon
Jan 30
First Quarter
Feb 7
Full
Feb 14
Last Quarter
Feb 21
New

Hourly Weather History & Observations

Time (CST) Temp. Windchill Dew Point Humidity Pressure Visibility Wind Dir Wind Speed Gust Speed Precip Events Conditions
12:15 AM 35.6 °F - 35.1 °F 98% 30.08 in 10.0 mi Calm Calm - N/A   Clear
12:35 AM 34.9 °F - 34.5 °F 99% 30.08 in 10.0 mi Calm Calm - N/A   Clear
12:55 AM 35.2 °F - 34.9 °F 99% 30.08 in 10.0 mi Calm Calm - N/A   Clear
1:15 AM 33.1 °F - 32.9 °F 99% 30.10 in 10.0 mi Calm Calm - N/A   Clear
1:35 AM 34.0 °F - 34.0 °F 100% 30.11 in 10.0 mi Calm Calm - N/A   Clear
1:55 AM 34.0 °F - 33.6 °F 99% 30.11 in 10.0 mi Calm Calm - N/A   Clear
2:35 AM 34.3 °F - 34.2 °F 99% 30.13 in 10.0 mi Calm Calm - N/A   Clear
2:55 AM 33.8 °F - 32.9 °F 96% 30.13 in 10.0 mi Calm Calm - N/A   Clear
3:15 AM 34.0 °F 29.8 °F 33.1 °F 96% 30.14 in 10.0 mi North 4.6 mph - N/A   Clear
3:35 AM 34.9 °F 29.9 °F 31.8 °F 89% 30.14 in 10.0 mi North 5.8 mph - N/A   Clear
3:55 AM 34.5 °F 31.6 °F 31.1 °F 87% 30.15 in 10.0 mi North 3.5 mph - N/A   Clear
4:15 AM 32.9 °F 28.5 °F 30.2 °F 90% 30.16 in 10.0 mi North 4.6 mph - N/A   Clear
4:35 AM 33.6 °F 30.6 °F 29.8 °F 86% 30.17 in 10.0 mi North 3.5 mph - N/A   Clear
4:55 AM 33.3 °F 30.2 °F 29.3 °F 85% 30.18 in 10.0 mi North 3.5 mph - N/A   Clear
5:15 AM 32.9 °F 29.8 °F 29.3 °F 87% 30.19 in 10.0 mi NNW 3.5 mph - N/A   Clear
5:35 AM 32.0 °F - 29.3 °F 90% 30.20 in 10.0 mi Calm Calm - N/A   Clear
5:55 AM 31.3 °F - 29.1 °F 92% 30.20 in 10.0 mi Calm Calm - N/A   Clear
6:15 AM 30.4 °F - 29.1 °F 95% 30.21 in 10.0 mi Calm Calm - N/A   Clear
6:35 AM 29.7 °F - 28.4 °F 95% 30.22 in 10.0 mi Calm Calm - N/A   Clear
6:55 AM 30.2 °F - 29.3 °F 96% 30.22 in 10.0 mi Calm Calm - N/A   Clear
7:15 AM 28.6 °F - 27.7 °F 96% 30.22 in 10.0 mi Calm Calm - N/A   Clear
7:35 AM 29.3 °F - 28.4 °F 96% 30.23 in 10.0 mi Calm Calm - N/A   Clear
8:15 AM 32.0 °F - 30.9 °F 96% 30.25 in 10.0 mi Calm Calm - N/A   Clear
8:35 AM 35.2 °F - 31.1 °F 85% 30.25 in 10.0 mi Calm Calm - N/A   Clear
8:55 AM 37.0 °F 34.5 °F 29.8 °F 75% 30.26 in 10.0 mi North 3.5 mph - N/A   Clear
9:15 AM 38.1 °F 33.7 °F 30.0 °F 73% 30.27 in 10.0 mi North 5.8 mph - N/A   Clear
9:35 AM 38.7 °F 35.2 °F 30.0 °F 71% 30.28 in 10.0 mi NNW 4.6 mph - N/A   Clear
9:55 AM 40.1 °F - 30.6 °F 69% 30.29 in 10.0 mi Calm Calm - N/A   Clear
10:15 AM 41.0 °F - 31.3 °F 68% 30.29 in 10.0 mi Calm Calm - N/A   Clear
10:35 AM 42.1 °F - 31.5 °F 66% 30.29 in 10.0 mi Calm Calm - N/A   Clear
10:55 AM 43.3 °F - 32.0 °F 64% 30.29 in 10.0 mi Calm Calm - N/A   Clear
11:15 AM 44.4 °F - 32.0 °F 62% 30.29 in 10.0 mi Calm Calm - N/A   Clear
11:35 AM 45.7 °F 44.4 °F 32.2 °F 59% 30.29 in 10.0 mi NW 3.5 mph - N/A   Clear
11:55 AM 46.4 °F 45.2 °F 32.7 °F 59% 30.29 in 10.0 mi WSW 3.5 mph - N/A   Clear
12:35 PM 47.7 °F - 32.4 °F 55% 30.27 in 10.0 mi Calm Calm - N/A   Clear
12:55 PM 48.2 °F - 32.2 °F 54% 30.27 in 10.0 mi Calm Calm - N/A   Clear
1:15 PM 49.3 °F - 32.4 °F 52% 30.26 in 10.0 mi WNW 4.6 mph - N/A   Clear
1:35 PM 49.6 °F - 30.9 °F 49% 30.26 in 10.0 mi North 4.6 mph - N/A   Clear
1:55 PM 50.0 °F - 31.8 °F 50% 30.26 in 10.0 mi NW 6.9 mph - N/A   Clear
2:15 PM 50.4 °F - 31.5 °F 48% 30.26 in 10.0 mi NW 6.9 mph - N/A   Clear
2:35 PM 50.2 °F - 30.4 °F 47% 30.26 in 10.0 mi Calm Calm - N/A   Clear
2:55 PM 51.1 °F - 30.7 °F 46% 30.26 in 10.0 mi NNW 5.8 mph - N/A   Clear
3:15 PM 50.7 °F - 30.4 °F 46% 30.25 in 10.0 mi NNW 6.9 mph - N/A   Clear
3:35 PM 50.7 °F - 30.7 °F 46% 30.26 in 10.0 mi NNW 3.5 mph - N/A   Clear
3:55 PM 50.7 °F - 30.2 °F 45% 30.26 in 10.0 mi North 3.5 mph - N/A   Clear
4:15 PM 50.4 °F - 29.7 °F 45% 30.26 in 10.0 mi Calm Calm - N/A   Clear
4:35 PM 50.0 °F - 30.2 °F 47% 30.26 in 10.0 mi Calm Calm - N/A   Clear
4:55 PM 50.0 °F - 30.6 °F 47% 30.27 in 10.0 mi Calm Calm - N/A   Clear
5:15 PM 47.5 °F - 30.9 °F 53% 30.27 in 10.0 mi Calm Calm - N/A   Clear
5:35 PM 46.2 °F 44.1 °F 29.5 °F 52% 30.27 in 10.0 mi North 4.6 mph - N/A   Clear
5:55 PM 44.8 °F - 28.9 °F 54% 30.28 in 10.0 mi Calm Calm - N/A   Clear
6:15 PM 43.9 °F 42.3 °F 28.6 °F 55% 30.29 in 10.0 mi North 3.5 mph - N/A   Clear
6:35 PM 43.2 °F 41.5 °F 28.4 °F 56% 30.29 in 10.0 mi North 3.5 mph - N/A   Clear
6:55 PM 43.0 °F 41.3 °F 28.6 °F 57% 30.29 in 10.0 mi NNE 3.5 mph - N/A   Clear
7:35 PM 40.1 °F 38.0 °F 29.5 °F 66% 30.30 in 10.0 mi NE 3.5 mph - N/A   Clear
7:55 PM 40.1 °F 38.0 °F 29.7 °F 66% 30.31 in 10.0 mi NE 3.5 mph - N/A   Clear
8:15 PM 38.7 °F 36.3 °F 29.8 °F 71% 30.31 in 10.0 mi NE 3.5 mph - N/A   Clear
8:35 PM 38.8 °F 36.5 °F 29.8 °F 70% 30.30 in 10.0 mi NE 3.5 mph - N/A   Clear
8:55 PM 38.5 °F 36.1 °F 30.2 °F 72% 30.30 in 10.0 mi ENE 3.5 mph - N/A   Clear
9:15 PM 37.0 °F - 30.2 °F 76% 30.31 in 10.0 mi Calm Calm - N/A   Clear
9:35 PM 36.9 °F - 30.7 °F 79% 30.31 in 10.0 mi Calm Calm - N/A   Clear
9:55 PM 36.1 °F 33.5 °F 30.9 °F 81% 30.29 in 10.0 mi NE 3.5 mph - N/A   Clear
10:15 PM 36.0 °F - 30.9 °F 82% 30.31 in 10.0 mi Calm Calm - N/A   Clear
10:55 PM 35.1 °F - 30.6 °F 84% 30.30 in 10.0 mi Calm Calm - N/A   Clear
11:15 PM 35.8 °F 31.9 °F 30.9 °F 82% 30.29 in 10.0 mi ENE 4.6 mph - N/A   Clear
11:35 PM 36.1 °F - 30.7 °F 81% 30.29 in 10.0 mi Calm Calm - N/A   Clear
11:55 PM 36.0 °F - 30.9 °F 82% 30.29 in 10.0 mi Calm Calm - N/A   Clear